Regional Weather Roundup
Issued by NWS Green Bay, WI

Current Version | Previous Version | Text Only | Print | Product List | Glossary On
Versions: 1 2 3 4 5 6 7 8 9 10 11 12 13 14 15 16 17 18 19 20 21 22 23 24 25 26 27 28 29 30 31 32 33 34 35 36 37 38 39 40 41 42 43 44 45 46 47 48 49 50
000 ASUS43 KGRB 041259 RWRGRB NORTH-CENTRAL AND NORTHEAST WISCONSIN REGIONAL WEATHER ROUNDUP NATIONAL WEATHER SERVICE GREEN BAY WI 700 AM CST THU MAR 04 2021 WIZ005-009-010>012-018-019-041400- NORTH CENTRAL WISCONSIN CITY SKY/WX TMP DP RH WIND PRES REMARKS IRONWOOD CLEAR 5 3 91 CALM 30.37R MANITOWISH WTR CLEAR 2 -1 86 CALM 30.33R ARBOR VITAE CLEAR 11 8 87 CALM 30.33R FOG EAGLE RIVER NOT AVBL LAND O LAKES CLEAR -1 -5 83 CALM 30.34R RHINELANDER CLEAR 12 8 84 CALM 30.33R PHILLIPS CLEAR 9 8 96 CALM 30.33S ANTIGO NOT AVBL TOMAHAWK N/A 7 5 91 CALM 30.35R MERRILL CLEAR 13 11 93 CALM 30.34R $$ WIZ013-073-041400- NORTHEAST WISCONSIN CITY SKY/WX TMP DP RH WIND PRES REMARKS IRON MOUNTAIN CLEAR 13 8 81 CALM 30.33R MARINETTE CLOUDY 20 15 81 N6 30.38R $$ WIZ017-030-035>037-045-041400- CENTRAL WISCONSIN CITY SKY/WX TMP DP RH WIND PRES REMARKS MEDFORD CLEAR 14 12 92 E5 30.33R WCI 6 WAUSAU CLEAR 20 12 71 N3 30.34R MOSINEE PTCLDY 19 14 79 NE7 30.35R MARSHFIELD PTCLDY 22 17 81 E6 30.34R WISC RAPIDS CLOUDY 25 22 88 E6 30.36R STEVENS POINT NOT AVBL WAUPACA CLEAR 24 20 85 CALM 30.37R SHAWANO NOT AVBL CLINTONVILLE NOT AVBL WAUTOMA CLEAR 21 19 92 CALM 30.37R $$ WIZ038-039-048-051-041400- FOX VALLEY CITY SKY/WX TMP DP RH WIND PRES REMARKS NWS GREEN BAY CLEAR 23 15 71 N9 30.36R APPLETON PTCLDY 21 16 79 N7 30.33R OSHKOSH CLEAR 21 16 81 N6 30.35R FOND DU LAC CLEAR 25 18 74 N9 30.35R $$ WIZ022-050-052-041400- EAST CENTRAL WISCONSIN CITY SKY/WX TMP DP RH WIND PRES REMARKS EPHRAIM CLOUDY 22 13 69 NE8G22 30.34R WASHINGTON ISL NOT AVBL STURGEON BAY CLOUDY 23 16 74 N14 30.36R MANITOWOC CLEAR 23 18 81 N10 30.35R SHEBOYGAN CLEAR 24 16 71 N8 30.33R $$ LMZ563-521-522-541>543-041400- LAKESHORE STATION/POSITION TIME TEMP WIND PRES VSBY WAVE AIR SEA DIR/SP/G HT/PER (UTC) (F) (DEG/KT/KT) (MB) (MI) (FT/S) SHEBOYGAN LKSHOR 1200 27 10/ 19/ 22 N/A KEWAUNEE LKSHORE 1230 23 350/ 6/ 13 1026.8R NORTHPORT PIER 1240 22 350/ 13/ 16 1028.8R CHAMBERS ISLAND 1240 22 320/ 13/ 18 N/A MENOMINEE LKSHOR 1230 20 35 320/ 8/ 9 1027.6R $$

USA.gov is the U.S. government's official web portal to all federal, state and local government web resources and services.